Regional Weather Roundup
Issued by NWS

Home | Current Version | Previous Version | Graphics & Text | Print | Product List | Glossary On
Versions: 1 2 3 4 5 6 7 8 9 10 11 12 13 14 15 16 17 18 19 20 21 22 23 24 25 26 27 28 29 30 31 32 33 34 35 36 37 38 39 40 41 42 43 44 45 46 47 48 49 50
000
ASUS43 KOAX 031210
RWRNE

WEATHER ROUNDUP FOR NEBRASKA
NATIONAL WEATHER SERVICE OMAHA NE
600 AM CST SAT DEC 03 2016

NOTES: SATELLITE DATA IS BEING USED TO AUGMENT CLOUD COVER ABOVE
       12000 FEET.
       "FAIR" INDICATES FEW OR NO CLOUDS BELOW 12,000 FEET WITH NO
       SIGNIFICANT WEATHER AND/OR OBSTRUCTIONS TO VISIBILITY.

  * THESE STATIONS DO NOT REPORT WEATHER SUCH AS RAIN...SNOW OR FOG.

NEZ001>004-019>022-054>056-031300-
NEBRASKA PANHANDLE

CITY           SKY/WX    TMP DP  RH WIND       PRES   REMARKS
SCOTTSBLUFF    CLEAR     20  16  84 CALM      30.04F
6HR MIN TEMP:  20; 6HR MAX TEMP:  32;

ALLIANCE       CLOUDY    25  20  81 S9        30.03F WCI  15
6HR MIN TEMP:  13; 6HR MAX TEMP:  28;

CHADRON        CLEAR     27  20  75 SW13      30.00F WCI  16
6HR MIN TEMP:  15; 6HR MAX TEMP:  34;

KIMBALL        PTCLDY    19  18  93 W7        30.03F WCI  10
SIDNEY         CLEAR     23  18  81 SW12      30.06F WCI  12
6HR MIN TEMP:  18; 6HR MAX TEMP:  28;

$$

NEZ057>060-069>072-079>082-031300-
SOUTHWEST NEBRASKA

CITY           SKY/WX    TMP DP  RH WIND       PRES   REMARKS
NORTH PLATTE   CLOUDY    30  24  78 CALM      30.15F
6HR MIN TEMP:  23; 6HR MAX TEMP:  33;

IMPERIAL       CLOUDY    28  23  81 S8        30.13F WCI  20
6HR MIN TEMP:  26; 6HR MAX TEMP:  30;

LEXINGTON      CLOUDY    31  26  80 S7        30.18F WCI  24
MCCOOK         CLOUDY    26  21  81 CALM      30.17F
6HR MIN TEMP:  23; 6HR MAX TEMP:  30;

OGALLALA       CLOUDY    32  26  79 S5        30.12F WCI  27
$$

NEZ005>010-023>029-035>040-094-031300-
NORTH CENTRAL NEBRASKA

CITY           SKY/WX    TMP DP  RH WIND       PRES   REMARKS
VALENTINE      CLOUDY    31  25  78 S12       30.09F WCI  22
6HR MIN TEMP:  16; 6HR MAX TEMP:  31;

AINSWORTH      CLOUDY    32  27  81 S8        30.12F WCI  24
BROKEN BOW     CLOUDY    31  27  85 S6        30.17F WCI  25
6HR MIN TEMP:  19; 6HR MAX TEMP:  31;

O`NEILL        CLOUDY    26  24  92 S6        30.17F WCI  20
ORD            CLOUDY    26  22  84 CALM      30.19F
6HR MIN TEMP:  19; 6HR MAX TEMP:  27;

THEDFORD       CLOUDY    33  26  72 S7        30.13F WCI  27
$$

NEZ041-046>049-061>064-073>077-083>087-031300-
SOUTH CENTRAL NEBRASKA

CITY           SKY/WX    TMP DP  RH WIND       PRES   REMARKS
GRAND ISLAND   CLOUDY    28  26  92 S6        30.24S WCI  22
6HR MIN TEMP:  24; 6HR MAX TEMP:  29;

AURORA         PTCLDY    26  24  93 S5        30.23F WCI  20
HASTINGS       PTCLDY    30  25  81 S3        30.23F
6HR MIN TEMP:  26; 6HR MAX TEMP:  30;

HEBRON         CLOUDY    26  23  91 CALM      30.26F
HOLDREGE       CLOUDY    28  25  87 CALM      30.20F
KEARNEY *      MOCLDY    27  21  80 CALM      30.21F
YORK           PTCLDY    25  25 100 S7        30.25S WCI  17
$$

NEZ011>018-030>034-042>045-031300-
NORTHEAST NEBRASKA

CITY           SKY/WX    TMP DP  RH WIND       PRES   REMARKS
NORFOLK        PTCLDY    19  16  88 E5        30.23F WCI  12
6HR MIN TEMP:  18; 6HR MAX TEMP:  25;

ALBION         PTCLDY    26  22  85 CALM      30.21F
BLAIR          CLEAR     26  25  94 SE3       30.27F
FREMONT        CLEAR     23  23 100 CALM      30.28F
TEKAMAH        PTCLDY    22  20  92 S3        30.29F
6HR MIN TEMP:  22; 6HR MAX TEMP:  27;

WAYNE          PTCLDY    20  19  92 CALM      30.25F
$$

NEZ050>053-065>068-078-088>093-031300-
SOUTHEAST NEBRASKA

CITY           SKY/WX    TMP DP  RH WIND       PRES   REMARKS
LINCOLN        CLEAR     24  21  88 CALM      30.29F
6HR MIN TEMP:  20; 6HR MAX TEMP:  27;

OMAHA EPPLEY   FOG       23  19  85 CALM      30.31F VSB 1/4
6HR MIN TEMP:  23; 6HR MAX TEMP:  29;

BEATRICE       PTCLDY    26  25  94 CALM      30.27F
FALLS CITY       N/A    N/A N/A N/A MISG      30.30F
NEBRASKA CITY  CLOUDY    26  25  99 CALM      30.29F FOG
PLATTSMOUTH    CLEAR     25  22  89 CALM      30.30S FOG
$$

NEZ044-045-051>053-067-031300-
OMAHA AREA

CITY           SKY/WX    TMP DP  RH WIND       PRES   REMARKS
OMAHA EPPLEY   FOG       23  19  85 CALM      30.31F VSB 1/4
6HR MIN TEMP:  23; 6HR MAX TEMP:  29;

BLAIR          CLEAR     26  25  94 SE3       30.27F
FREMONT        CLEAR     23  23 100 CALM      30.28F
MILLARD        CLEAR     24  22  93 CALM      30.31S
OFFUTT AFB     FOG       21  21  99 CALM      30.31S VSB 1/2
PLATTSMOUTH    CLEAR     25  22  89 CALM      30.30S FOG
WAHOO          FAIR      21  19  93 CALM      30.28F
$$




USA.gov is the U.S. government's official web portal to all federal, state and local government web resources and services.